Regional Weather Roundup
Issued by NWS Charleston, SC

Current Version | Previous Version | Graphics & Text | Print | Product List | Glossary On
Versions: 1 2 3 4 5 6 7 8 9 10 11 12 13 14 15 16 17 18 19 20 21 22 23 24 25 26 27 28 29 30 31 32 33 34 35 36 37 38 39 40 41 42 43 44 45 46 47 48 49 50
000 ASUS42 KCHS 250927 RWRCHS REGIONAL WEATHER ROUNDUP NATIONAL WEATHER SERVICE CHARLESTON SC 500 AM EDT MON MAY 25 2015 NOTE: "FAIR" INDICATES FEW OR NO CLOUDS BELOW 12,000 FEET WITH NO SIGNIFICANT WEATHER AND/OR OBSTRUCTIONS TO VISIBILITY. NOT ALL STATIONS ARE QUALITY CONTROLLED BY THE NATIONAL WEATHER SERVICE. USE DATA WITH CAUTION...ESPECIALLY DEWPOINT OBSERVATIONS. SCZ027-030-031-034>040-042>050-251000- ...SOUTHEAST SOUTH CAROLINA... CITY SKY/WX TMP DP RH WIND PRES REMARKS N CHARLESTON MOCLDY 65 60 84 NE6 30.28S WATERFRONT PAR N/A 73 64 73 E13 30.26R MOUNT PLEASANT LGT RAIN 66 61 82 CALM 30.29S JOHNS ISLAND MOSUNNY 72 64 78 E5 30.28S PINOPOLIS N/A 68 61 77 VRB3 30.22R MONCKS CORNER FAIR 61 57 88 CALM 30.29S SUMMERVILLE PTSUNNY 59 59 100 CALM 30.29F BEAUFORT MCAS MOCLDY 74 65 73 E9 30.26S BEAUFORT ARPT CLOUDY 73 66 78 CALM 30.26S HILTON HEAD IS CLEAR 75 66 73 NE3 30.26F WALTERBORO CLOUDY 63 59 88 E6 30.28F ALLENDALE CLOUDY 64 61 88 CALM 30.27S FOG ...SOUTHERN MIDLANDS AND PEE DEE... CITY SKY/WX TMP DP RH WIND PRES REMARKS GEORGETOWN NOT AVBL KINGSTREE NOT AVBL ORANGEBURG CLEAR 61 57 87 CALM 30.29S BARNWELL PTSUNNY 63 61 94 NE3 30.29S AIKEN FAIR 59 55 88 NE5 30.33S MANNING FAIR 55 50 82 CALM 30.30S COLUMBIA CLEAR 63 56 78 CALM 30.29S SUMTER CLEAR 58 55 88 N3 30.29S FLORENCE CLEAR 59 56 89 CALM 30.31S MYRTLE BEACH PTCLDY 72 57 60 SE9 30.32F N MYRTLE BEACH PTCLDY 72 59 63 SE6 30.31S $$ GAZ063-065-086>088-099>101-113>116-118-119-134>141-150-251000- ...SOUTHEAST GEORGIA... CITY SKY/WX TMP DP RH WIND PRES REMARKS SAVANNAH ARPT CLOUDY 75 65 70 E8 30.24S HUNTER AAF CLOUDY 75 68 77 E8 30.21F FORT STEWART CLOUDY 73 68 83 E5 30.21S STATESBORO CLOUDY 68 66 94 CALM 30.25F SYLVANIA PTSUNNY 68 65 91 E6 30.27S CLAXTON PTSUNNY 68 64 88 NE5 30.24S ...CSRA...CENTRAL AND FAR SOUTHEAST GEORGIA... CITY SKY/WX TMP DP RH WIND PRES REMARKS THOMSON CLEAR 65 64 96 E3 30.32S AUGUSTA-BUSH CLOUDY 61 60 97 CALM 30.27F AUGUSTA-DANIEL MOCLDY 68 60 75 SE3 30.29S SWAINSBORO CLOUDY 70 66 88 E6 30.26S VIDALIA CLOUDY 70 64 83 NE3 30.24S HAZE EASTMAN CLOUDY 69 69 100 E5 30.25S HAZLEHURST PTSUNNY 70 68 92 CALM 30.22S ALMA CLOUDY 68 67 96 CALM 30.22S WAYCROSS PTCLDY 68 68 100 CALM 30.21S FOG JESUP FAIR 72 70 94 E3 30.22S BAXLEY CLOUDY 70 68 94 CALM 30.22S BRUNSWICK N/A 73 70 88 E6 30.23S SAINT SIMONS NOT AVBL $$ SCZ027-028-034-036>038-045-046-048>050-GAZ119-141-251000- ...LAKE AND SUPPLEMENTAL COASTAL OBSERVATIONS... STATION/POSITION TIME TEMP WIND PRES WAVE SWELL AIR SEA DIR/SP/G HT/PER HT/PER/DIR (UTC) (F) (DEG/KT/KT) (MB) (FT/S) (FT/S/D) UPR LAKE MARION NOT AVBL WINYAH BAY 0845 72 110/ 8 1025.0S LAKE MURRAY 0900 66 80/ 4/ 6 1025.4S ACE BASIN NERRS NOT AVBL FORT PULASKI 0900 75 77 100/ 9/ 11 1024.6F SAPELO ISLAND 0900 74 110/ 5 1023.0S $$ ANZ835-935-AMZ111-154-330-350-352-354-370-450-454-472-251000- ...C-MAN AND BUOY OBSERVATIONS... STATION/POSITION TIME TEMP WIND PRES WAVE SWELL AIR SEA DIR/SP/G HT/PER HT/PER/DIR (UTC) (F) (DEG/KT/KT) (MB) (FT/S) (FT/S/D) BUOY 41004 0850 74 75 110/ 10/ 12 1024.8R 5/ 8 5/ 8 BUOY 41008 0850 76 75 110/ 12/ 16 1023.5S 5/ 9 5/100/ 9 FOLLY BEACH CMAN 0900 74 100/ 12/ 14 1025.2S CAPERS NEARSHORE 0808 74 130/ 12/ 17 1025.5R FRIPP NEARSHORE 0800 75 100/ 12/ 14 1023.8R STATION/POSITION TIME TEMP WIND PRES WAVE SWELL AIR SEA DIR/SP/G HT/PER HT/PER/DIR (UTC) (F) (DEG/KT/KT) (MB) (FT/S) (FT/S/D) 5E ST. MARYS GA 0821 78 N/A 5/ 8 FRYING PAN BUOY 0850 74 74 120/ 10/ 12 1026.8F 4/ 7 3/130/ 7 BUOY 41025 0850 73 77 160/ 6/ 8 1027.6R 2/ 7 2/ 50/ 7 CAPE LOOKOUT NC 0900 72 130/ 8/ 9 1026.8F BUOY 41002 0850 73 74 100/ 12/ 14 1026.2R 4/ 6 3/ 90/ 6 BUOY 41010 0820 78 79 100/ 12/ 14 1022.3R ST AUGUSTINE FL 0900 77 77 140/ 10/ 11 1022.8F $$

USA.gov is the U.S. government's official web portal to all federal, state and local government web resources and services.